Weather in Bolshoe Selo

Russia / Yaroslavl Oblast     57°43′15″N   38°56′29″E
temp.,
°C
wind,
m/s
gust,
m/s
humid.,
%
clouds,
%
prec.,
mm/h
press.,
hPa
HPBL,
m
1 august, sun
sun100:00+16wsw311820 0.0 1006338
03:00+14sw39944 0.0 1008229
06:00+15sw2791100 0.0 1008217
09:00+20sw3665100 0.0 1009628
12:00+25wsw4848100 0.0 10091733
15:00+22sw5958100 0.1 10091140
18:00+18ssw498586 0.3 1008601
21:00+17ssw389128 0.3 1009355
2 august, mon
mon200:00+16ssw2998100 0.0 1009210
03:00+15ssw289851 0.0 1009178
06:00+17s269589 0.0 1009182
09:00+22ssw356950 0.0 1009539
12:00+27s354454 0.0 10071746
15:00+27s2652100 0.0 10051152
18:00+22sse31079100 1.1 1003243
21:00+22sse41381100 1.2 1001388
3 august, tue
tue300:00+19ssw41293100 1.1 1002427
03:00+17s31198100 3.3 1002433
06:00+17ssw3998100 0.1 1002496
09:00+17w479493 0.6 1004544
12:00+19w3571100 0.1 1005993
15:00+20wsw356594 0.1 10061031
18:00+22w255419 0.0 10061411
21:00+15wsw229188 0.4 100830
4 august, wed
wed400:00+13wsw27962 0.0 1008132
03:00+12w24960 0.0 101166
06:00+12w29920 0.0 1012269
09:00+17nw35600 0.0 1013929
12:00+21nw35390 0.0 10141902
15:00+22wnw35338 0.0 10142515
18:00+21nnw344198 0.0 1015890
21:00+16nne1155100 0.0 101624
5 august, thu
thu500:00+12nw116516 0.0 101711
03:00+11nnw117214 0.0 101910
06:00+12n117399 0.0 101915
09:00+19e1250100 0.0 1019464
12:00+21se1239100 0.0 10191350
15:00+22ne2235100 0.0 10182076
18:00+20ne255074 0.0 1017172
21:00+16e385974 0.0 1018180